User: anonymous   Login
Location: Koussan�
(15.2012°N, 12.5548°W)
Time: 00:50:53
(UTC+00:00)
Language:

SWIFT - Orbit

View from above orbital plane
View from above orbital plane
View from above satellite
View from above satellite

Ground track
Ground track

The orbit data is extracted from the following two-line orbital elements,

1 28485U 04047A   21015.54687818  .00000893  00000-0  30344-4 0  9996
2 28485  20.5579 339.9307 0010953 218.8229 141.1418 15.04829334885449
Epoch (UTC): 15 January 2021 13:07:30
Eccentricity: 0.0010953
inclination: 20.5579°
perigee height: 544 km
apogee height: 559 km
right ascension of ascending node: 339.9307°
argument of perigee: 218.8229°
revolutions per day: 15.04829334
mean anomaly at epoch: 141.1418°
orbit number at epoch: 88544

The dashed part of the orbit path shows where the satellite is in the earth's shadow,  

DLR